Weather History for Bemidji, MN

Change the Weather History Date:

Sunday, November 20, 2011

  Actual Average Record
Temperature  
Mean Temperature 12 °F -  
Max Temperature 19 °F 31 °F 55 °F (1962)
Min Temperature 6 °F 15 °F -11 °F (1978)
Degree Days  
Heating Degree Days 52    
Moisture  
Dew Point 5 °F    
Average Humidity 74    
Maximum Humidity 85    
Minimum Humidity 54    
Precipitation  
Precipitation 0.00 in - - ()
Sea Level Pressure  
Sea Level Pressure 30.24 in    
Wind  
Wind Speed 4 mph (SSW)    
Max Wind Speed 8 mph    
Max Gust Speed -    
Visibility 9 miles    
Events Snow    
Averages and records for this station are not official NWS values.
T = Trace of Precipitation, MM = Missing Value Source: NWS Daily Summary

Daily Weather History Graph

Daily Weather History Graph

Search for Another Location

Airport:

Trip Planner

Search our weather history database for the weather conditions in past years. The results will help you decide how hot, cold, wet, or windy it might be!

Date:

Astronomy

Nov. 20, 2011 Rise Set
Actual Time 7:31 AM CST 4:38 PM CST
Civil Twilight 6:57 AM CST 5:12 PM CST
Nautical Twilight 6:19 AM CST 5:50 PM CST
Astronomical Twilight 5:43 AM CST 6:26 PM CST
Moon 1:40 AM CST 1:45 PM CST
Length of Visible Light 10h 15m
Length of Day
9h 07m
Waning Crescent, 27% of the Moon is Illuminated
Nov 20
Waning Crescent
Nov 25
New
Dec 2
First Quarter
Dec 10
Full
Dec 17
Last Quarter

Hourly Weather History & Observations

Time (CST) Temp. Windchill Dew Point Humidity Pressure Visibility Wind Dir Wind Speed Gust Speed Precip Events Conditions
12:15 AM 10.4 °F 4.0 °F 5.0 °F 79% 30.19 in 10.0 mi North 3.5 mph - N/A Snow Light Snow
12:35 AM 10.4 °F -1.5 °F 5.0 °F 79% 30.19 in 10.0 mi NNW 8.1 mph - N/A Snow Light Snow
12:55 AM 10.4 °F 2.2 °F 5.0 °F 79% 30.18 in 10.0 mi NNW 4.6 mph - N/A Snow Light Snow
1:15 AM 10.4 °F 2.2 °F 5.0 °F 79% 30.20 in 10.0 mi NNW 4.6 mph - N/A Snow Light Snow
1:35 AM 10.4 °F 0.8 °F 5.0 °F 79% 30.20 in 10.0 mi North 5.8 mph - N/A Snow Light Snow
1:55 AM 10.4 °F 4.0 °F 5.0 °F 79% 30.20 in 10.0 mi West 3.5 mph - N/A Snow Light Snow
2:15 AM 10.4 °F 2.2 °F 5.0 °F 79% 30.21 in 10.0 mi West 4.6 mph - N/A Snow Light Snow
2:35 AM 10.4 °F -0.4 °F 5.0 °F 79% 30.22 in 10.0 mi West 6.9 mph - N/A Snow Light Snow
2:55 AM 8.6 °F -1.3 °F 5.0 °F 85% 30.22 in 10.0 mi West 5.8 mph - N/A Snow Light Snow
3:15 AM 8.6 °F 0.1 °F 5.0 °F 85% 30.22 in 10.0 mi West 4.6 mph - N/A Snow Light Snow
3:35 AM 8.6 °F 0.1 °F 5.0 °F 85% 30.22 in 10.0 mi WNW 4.6 mph - N/A Snow Light Snow
4:15 AM 8.6 °F -1.3 °F 5.0 °F 85% 30.24 in 10.0 mi WNW 5.8 mph - N/A Snow Light Snow
4:35 AM 8.6 °F -1.3 °F 5.0 °F 85% 30.24 in 10.0 mi NW 5.8 mph - N/A   Overcast
4:55 AM 8.6 °F 0.1 °F 3.2 °F 79% 30.22 in 10.0 mi NW 4.6 mph - N/A Snow Light Snow
5:55 AM 8.6 °F 2.0 °F 5.0 °F 85% 30.24 in 10.0 mi WNW 3.5 mph - N/A   Overcast
6:15 AM 8.6 °F 2.0 °F 3.2 °F 79% 30.24 in 10.0 mi WNW 3.5 mph - N/A   Overcast
6:55 AM 6.8 °F - 3.2 °F 85% 30.25 in 10.0 mi Calm Calm - N/A   Overcast
7:15 AM 8.6 °F 2.0 °F 3.2 °F 79% 30.26 in 10.0 mi West 3.5 mph - N/A   Overcast
7:35 AM 8.6 °F - 3.2 °F 79% 30.27 in 10.0 mi Calm Calm - N/A Snow Light Snow
7:55 AM 8.6 °F - 3.2 °F 79% 30.27 in 10.0 mi Calm Calm - N/A Snow Light Snow
8:15 AM 8.6 °F - 3.2 °F 79% 30.28 in 7.0 mi Calm Calm - N/A Snow Light Snow
8:35 AM 8.6 °F - 3.2 °F 79% 30.29 in 7.0 mi Calm Calm - N/A Snow Light Snow
8:55 AM 8.6 °F - 5.0 °F 85% 30.29 in 3.0 mi Calm Calm - N/A Snow Light Snow
9:15 AM 10.4 °F - 5.0 °F 79% 30.29 in 3.0 mi Calm Calm - N/A Snow Light Snow
9:35 AM 10.4 °F - 5.0 °F 79% 30.29 in 1.8 mi Calm Calm - N/A Snow Light Snow
9:55 AM 10.4 °F - 5.0 °F 79% 30.30 in 3.0 mi Calm Calm - N/A Snow Light Snow
10:15 AM 10.4 °F - 5.0 °F 79% 30.31 in 2.5 mi Calm Calm - N/A Snow Light Snow
10:35 AM 10.4 °F - 5.0 °F 79% 30.31 in 3.0 mi Calm Calm - N/A Snow Light Snow
10:55 AM 12.2 °F - 5.0 °F 73% 30.31 in 7.0 mi Calm Calm - N/A Snow Light Snow
11:15 AM 12.2 °F 6.1 °F 5.0 °F 73% 30.31 in 7.0 mi WSW 3.5 mph - N/A Snow Light Snow
11:35 AM 12.2 °F - 5.0 °F 73% 30.30 in 10.0 mi Calm Calm - N/A Snow Light Snow
11:55 AM 14.0 °F - 5.0 °F 67% 30.29 in 10.0 mi Calm Calm - N/A   Scattered Clouds
12:15 PM 14.0 °F 8.2 °F 5.0 °F 67% 30.29 in 10.0 mi SSW 3.5 mph - N/A   Clear
12:55 PM 15.8 °F 10.2 °F 5.0 °F 62% 30.28 in 10.0 mi SW 3.5 mph - N/A   Clear
1:15 PM 17.6 °F 10.7 °F 5.0 °F 58% 30.27 in 10.0 mi SSW 4.6 mph - N/A   Clear
1:55 PM 17.6 °F 12.3 °F 6.8 °F 63% 30.26 in 10.0 mi South 3.5 mph - N/A   Clear
2:15 PM 17.6 °F 9.3 °F 6.8 °F 63% 30.25 in 10.0 mi SSE 5.8 mph - N/A   Clear
2:35 PM 17.6 °F 12.3 °F 6.8 °F 63% 30.25 in 10.0 mi South 3.5 mph - N/A   Clear
2:55 PM 19.4 °F 12.8 °F 5.0 °F 54% 30.25 in 10.0 mi South 4.6 mph - N/A   Clear
3:15 PM 17.6 °F 9.3 °F 5.0 °F 58% 30.24 in 10.0 mi South 5.8 mph - N/A   Clear
3:35 PM 17.6 °F 9.3 °F 5.0 °F 58% 30.24 in 10.0 mi South 5.8 mph - N/A   Clear
3:55 PM 17.6 °F 12.3 °F 5.0 °F 58% 30.24 in 10.0 mi South 3.5 mph - N/A   Clear
4:15 PM 17.6 °F 12.3 °F 5.0 °F 58% 30.24 in 10.0 mi South 3.5 mph - N/A   Clear
4:35 PM 17.6 °F - 5.0 °F 58% 30.24 in 10.0 mi Calm Calm - N/A   Clear
4:55 PM 14.0 °F 8.2 °F 5.0 °F 67% 30.22 in 10.0 mi SSE 3.5 mph - N/A   Clear
5:15 PM 14.0 °F 8.2 °F 5.0 °F 67% 30.23 in 10.0 mi SSE 3.5 mph - N/A   Clear
5:35 PM 14.0 °F 8.2 °F 5.0 °F 67% 30.22 in 10.0 mi SSE 3.5 mph - N/A   Clear
5:55 PM 12.2 °F 6.1 °F 5.0 °F 73% 30.22 in 10.0 mi SSE 3.5 mph - N/A   Clear
6:15 PM 12.2 °F 6.1 °F 5.0 °F 73% 30.22 in 10.0 mi SSE 3.5 mph - N/A   Clear
6:35 PM 10.4 °F 4.0 °F 3.2 °F 73% 30.21 in 10.0 mi SSE 3.5 mph - N/A   Clear
6:55 PM 10.4 °F 4.0 °F 3.2 °F 73% 30.21 in 10.0 mi SSE 3.5 mph - N/A   Clear
7:35 PM 10.4 °F 4.0 °F 5.0 °F 79% 30.20 in 10.0 mi SE 3.5 mph - N/A   Clear
7:55 PM 10.4 °F 0.8 °F 3.2 °F 73% 30.19 in 10.0 mi SSE 5.8 mph - N/A   Clear
8:15 PM 8.6 °F 0.1 °F 3.2 °F 79% 30.19 in 10.0 mi SSE 4.6 mph - N/A   Clear
8:35 PM 8.6 °F 0.1 °F 3.2 °F 79% 30.19 in 10.0 mi South 4.6 mph - N/A   Clear
8:55 PM 10.4 °F 0.8 °F 5.0 °F 79% 30.18 in 10.0 mi SSE 5.8 mph - N/A   Clear
9:15 PM 12.2 °F 4.3 °F 6.8 °F 79% 30.20 in 10.0 mi SSW 4.6 mph - N/A   Clear
9:35 PM 12.2 °F 4.3 °F 5.0 °F 73% 30.19 in 10.0 mi South 4.6 mph - N/A   Clear
9:55 PM 12.2 °F 1.7 °F 6.8 °F 79% 30.18 in 10.0 mi South 6.9 mph - N/A   Clear
10:15 PM 12.2 °F -1.0 °F 6.8 °F 79% 30.18 in 10.0 mi South 10.4 mph - N/A   Clear
10:35 PM 12.2 °F -1.0 °F 6.8 °F 79% 30.18 in 10.0 mi South 10.4 mph - N/A   Clear
10:55 PM 12.2 °F -1.0 °F 6.8 °F 79% 30.17 in 10.0 mi South 10.4 mph - N/A   Clear
11:15 PM 12.2 °F -1.8 °F 6.8 °F 79% 30.16 in 10.0 mi South 11.5 mph - N/A   Clear
11:35 PM 12.2 °F -1.0 °F 6.8 °F 79% 30.16 in 10.0 mi South 10.4 mph - N/A   Clear
11:55 PM 12.2 °F -1.0 °F 8.6 °F 85% 30.16 in 10.0 mi South 10.4 mph - N/A   Clear